Location: Caltech
(34.1382°N, 118.1253°W)
Time: 12:12:51
(UTC-07:00)

ERBS - Visible Passes

Search period start: 23 October 2014 00:00
Search period end: 02 November 2014 00:00
Orbit: 460 x 490 km, 57.0° (Epoch: 23 October)

Date Brightness Start Highest point End Pass type
(mag) Time Alt. Az. Time Alt. Az. Time Alt. Az.
23 Oct 2.9 05:38:59 27° NNW 05:40:46 62° NE 05:44:22 10° SE visible
24 Oct 3.3 05:11:34 48° ENE 05:11:34 48° ENE 05:14:57 10° SE visible
25 Oct 5.1 04:44:15 19° ESE 04:44:15 19° ESE 04:45:28 10° ESE visible
25 Oct 4.3 06:18:26 13° WSW 06:19:16 14° WSW 06:21:18 10° SSW visible
25 Oct 4.9 19:54:24 10° SSW 19:55:08 15° S 19:55:08 15° S visible
26 Oct 4.5 05:51:11 16° SW 05:51:11 16° SW 05:52:30 10° SSW visible
26 Oct 3.6 19:25:14 10° S 19:27:47 27° SE 19:27:47 27° SE visible
27 Oct 3.8 18:56:07 10° S 18:59:03 23° ESE 19:00:17 19° E visible
27 Oct 5.5 20:33:26 10° W 20:34:27 16° W 20:34:27 16° W visible
28 Oct 4.1 18:27:05 10° SSE 18:29:40 19° ESE 18:32:14 10° ENE visible
28 Oct 4.2 20:03:45 10° WSW 20:06:48 30° NW 20:06:48 30° NW visible
29 Oct 3.8 19:34:05 10° WSW 19:37:28 37° NW 19:39:00 25° N visible
30 Oct 3.4 19:04:27 10° WSW 19:07:58 47° NW 19:11:02 13° NNE visible
31 Oct 3.0 18:34:51 10° SW 18:38:26 60° NW 18:42:00 10° NNE visible
